Location: Brunsen
(51.8651°N, 9.8610°E)
Time: 11:36:04
(UTC+00:00)

Cosmos 2228 Rocket - Pass Details

Date: 23 May 2024
Orbit: 616 x 648 km, 82.5° (Epoch: 23 June)

Event Time Altitude Azimuth Distance (km) Brightness Sun altitude
Exits shadow 00:05:26 32° 190° (S) 1,082 3.7 -16.7°
Maximum altitude 00:07:29 89° 277° (W) 641 3.0 -16.7°
Drops below altitude 10° 00:12:01 10° 11° (N) 2,039 7.1 -16.5°
Sets 00:14:17 0° 11° (N) 2,958 8.4 -16.4°
